Demopolis Municipal Airport, AL

1:22 PM CST on February 22, 2018 (GMT -0600)
Demopolis Municipal Airport

Weather History for KDYA - January, 2014

Change the Weather History Date:

Monday, January 20, 2014

  Actual Average (KNMM) Record (KNMM)
Temperature  
Mean Temperature 46 °F -  
Max Temperature 66 °F 55 °F 77 °F (2017)
Min Temperature 26 °F 35 °F 19 °F (2008)
Degree Days  
Heating Degree Days 19    
Moisture  
Dew Point 30 °F    
Average Humidity 56    
Maximum Humidity 100    
Minimum Humidity 21    
Precipitation  
Precipitation 0.00 in - - ()
Sea Level Pressure  
Sea Level Pressure 30.03 in    
Wind  
Wind Speed 0 mph (SSW)    
Max Wind Speed 5 mph    
Max Gust Speed -    
Visibility 10 miles    
Events      
Averages and records for this station are not official NWS values.
T = Trace of Precipitation, MM = Missing Value Source: NWS Daily Summary

Daily Weather History Graph

Daily Weather History Graph

Search for Another Location

Airport or City:

Trip Planner

Search our weather history database for the weather conditions in past years. The results will help you decide how hot, cold, wet, or windy it might be!

Date:

Astronomy

Jan. 20, 2014 Rise Set
Actual Time 6:52 AM CST 5:13 PM CST
Civil Twilight 6:25 AM CST 5:40 PM CST
Nautical Twilight 5:55 AM CST 6:10 PM CST
Astronomical Twilight 5:26 AM CST 6:39 PM CST
Moon 9:30 PM CST (1/20) 9:08 AM CST (1/20)
Length of Visible Light 11h 14m
Length of Day
10h 21m
Waning Gibbous, 82% of the Moon is Illuminated
Jan 20
Waning Gibbous
Jan 23
Last Quarter
Jan 30
New
Feb 6
First Quarter
Feb 14
Full

Hourly Weather History & Observations

Time (CST) Temp. Dew Point Humidity Pressure Visibility Wind Dir Wind Speed Gust Speed Precip Events Conditions
12:15 AM 29.3 °F 29.3 °F 100% 30.12 in 10.0 mi Calm Calm - N/A   Clear
12:35 AM 29.1 °F - N/A% 30.11 in 10.0 mi Calm Calm - N/A   Clear
12:55 AM 28.9 °F - N/A% 30.11 in 10.0 mi Calm Calm - N/A   Clear
1:15 AM 29.1 °F - N/A% 30.10 in 10.0 mi Calm Calm - N/A   Clear
1:35 AM 29.1 °F - N/A% 30.10 in 10.0 mi Calm Calm - N/A   Clear
1:55 AM 29.7 °F 29.7 °F 100% 30.09 in 10.0 mi Calm Calm - N/A   Clear
2:15 AM 29.1 °F 29.1 °F 100% 30.11 in 10.0 mi Calm Calm - N/A   Clear
2:35 AM 28.4 °F - N/A% 30.10 in 10.0 mi Calm Calm - N/A   Clear
2:55 AM 28.4 °F - N/A% 30.10 in 4.0 mi Calm Calm - N/A   Haze
3:15 AM 28.8 °F - N/A% 30.09 in 5.0 mi Calm Calm - N/A   Haze
3:35 AM 27.5 °F - N/A% 30.09 in 10.0 mi Calm Calm - N/A   Clear
3:55 AM 28.4 °F - N/A% 30.09 in 10.0 mi Calm Calm - N/A   Clear
4:15 AM 30.0 °F 30.0 °F 100% 30.08 in 10.0 mi Calm Calm - N/A   Clear
4:35 AM 27.3 °F 27.3 °F 100% 30.08 in 10.0 mi Calm Calm - N/A   Clear
4:55 AM 27.3 °F - N/A% 30.08 in 10.0 mi Calm Calm - N/A   Clear
5:15 AM 27.5 °F - N/A% 30.08 in 10.0 mi Calm Calm - N/A   Clear
5:35 AM 28.0 °F - N/A% 30.08 in 10.0 mi Calm Calm - N/A   Clear
5:55 AM 27.7 °F - N/A% 30.07 in 10.0 mi Calm Calm - N/A   Clear
6:15 AM 27.0 °F - N/A% 30.08 in 10.0 mi Calm Calm - N/A   Clear
6:35 AM 26.2 °F - N/A% 30.08 in 10.0 mi Calm Calm - N/A   Clear
6:55 AM 26.4 °F - N/A% 30.08 in 10.0 mi Calm Calm - N/A   Clear
7:15 AM 26.6 °F - N/A% 30.09 in 10.0 mi Calm Calm - N/A   Clear
7:35 AM 29.1 °F - N/A% 30.09 in 10.0 mi Calm Calm - N/A   Clear
7:55 AM 32.0 °F - N/A% 30.10 in 10.0 mi Calm Calm - N/A   Clear
8:15 AM 37.0 °F 36.1 °F 97% 30.10 in 10.0 mi Calm Calm - N/A   Clear
8:35 AM 39.4 °F 34.0 °F 81% 30.11 in 10.0 mi Calm Calm - N/A   Clear
8:55 AM 41.7 °F 32.5 °F 70% 30.11 in 10.0 mi Calm Calm - N/A   Clear
9:15 AM 45.3 °F 32.2 °F 60% 30.11 in 10.0 mi Calm Calm - N/A   Clear
9:35 AM 48.6 °F 30.7 °F 50% 30.11 in 10.0 mi Calm Calm - N/A   Clear
9:55 AM 50.9 °F 30.6 °F 46% 30.11 in 10.0 mi Calm Calm - N/A   Clear
10:15 AM 53.6 °F 31.1 °F 42% 30.11 in 10.0 mi Calm Calm - N/A   Clear
10:35 AM 55.2 °F 28.9 °F 37% 30.10 in 10.0 mi Calm Calm - N/A   Clear
10:55 AM 57.7 °F 28.4 °F 33% 30.09 in 10.0 mi Calm Calm - N/A   Clear
11:15 AM 59.4 °F 27.5 °F 30% 30.08 in 10.0 mi Calm Calm - N/A   Clear
11:35 AM 61.7 °F 27.3 °F 27% 30.07 in 10.0 mi Calm Calm - N/A   Clear
11:55 AM 63.0 °F 28.0 °F 27% 30.05 in 10.0 mi Calm Calm - N/A   Clear
12:15 PM 63.1 °F 28.6 °F 27% 30.03 in 10.0 mi Calm Calm - N/A   Clear
12:35 PM 63.5 °F 28.9 °F 27% 30.02 in 10.0 mi Calm Calm - N/A   Clear
12:55 PM 65.1 °F 27.0 °F 24% 30.00 in 10.0 mi Calm Calm - N/A   Clear
1:15 PM 65.3 °F 26.6 °F 23% 29.99 in 10.0 mi SSW 4.6 mph - N/A   Clear
1:35 PM 66.0 °F 27.1 °F 23% 29.98 in 10.0 mi Calm Calm - N/A   Clear
1:55 PM 66.2 °F 27.0 °F 23% 29.97 in 10.0 mi Calm Calm - N/A   Clear
2:15 PM 66.2 °F 27.0 °F 23% 29.97 in 10.0 mi Calm Calm - N/A   Clear
2:35 PM 65.8 °F 26.1 °F 22% 29.96 in 10.0 mi Calm Calm - N/A   Clear
2:55 PM 66.2 °F 25.3 °F 21% 29.96 in 10.0 mi Calm Calm - N/A   Clear
3:15 PM 65.8 °F 25.2 °F 21% 29.95 in 10.0 mi Calm Calm - N/A   Clear
3:35 PM 65.5 °F 27.1 °F 24% 29.95 in 10.0 mi Calm Calm - N/A   Clear
3:55 PM 65.3 °F 28.4 °F 25% 29.95 in 10.0 mi Calm Calm - N/A   Clear
4:15 PM 64.8 °F 27.5 °F 25% 29.95 in 10.0 mi Calm Calm - N/A   Clear
4:35 PM 63.5 °F 27.1 °F 25% 29.95 in 10.0 mi Calm Calm - N/A   Clear
4:55 PM 62.1 °F 27.1 °F 27% 29.95 in 10.0 mi Calm Calm - N/A   Clear
5:15 PM 57.6 °F 28.8 °F 33% 29.95 in 10.0 mi Calm Calm - N/A   Clear
5:35 PM 50.9 °F 32.2 °F 49% 29.96 in 10.0 mi Calm Calm - N/A   Clear
5:55 PM 47.8 °F 32.9 °F 56% 29.96 in 10.0 mi Calm Calm - N/A   Clear
6:15 PM 43.7 °F 33.1 °F 66% 29.96 in 10.0 mi Calm Calm - N/A   Clear
6:35 PM 45.0 °F 33.1 °F 63% 29.96 in 10.0 mi Calm Calm - N/A   Clear
6:55 PM 43.2 °F 32.9 °F 67% 29.95 in 10.0 mi Calm Calm - N/A   Clear
7:15 PM 40.8 °F 32.2 °F 71% 29.95 in 10.0 mi Calm Calm - N/A   Clear
7:35 PM 40.3 °F 32.2 °F 73% 29.96 in 10.0 mi Calm Calm - N/A   Clear
7:55 PM 39.7 °F 32.5 °F 75% 29.95 in 10.0 mi Calm Calm - N/A   Clear
8:15 PM 38.3 °F 32.2 °F 79% 29.96 in 10.0 mi Calm Calm - N/A   Clear
8:35 PM 36.0 °F 31.8 °F 85% 29.95 in 10.0 mi Calm Calm - N/A   Clear
8:55 PM 38.3 °F 32.0 °F 78% 29.96 in 10.0 mi Calm Calm - N/A   Clear
9:15 PM 38.5 °F 32.0 °F 78% 29.96 in 10.0 mi Calm Calm - N/A   Clear
9:35 PM 38.5 °F 32.0 °F 78% 29.95 in 10.0 mi Calm Calm - N/A   Clear
9:55 PM 41.2 °F 32.0 °F 70% 29.95 in 10.0 mi Calm Calm - N/A   Clear
10:15 PM 37.6 °F 31.1 °F 77% 29.95 in 10.0 mi Calm Calm - N/A   Clear
10:35 PM 38.3 °F 32.0 °F 78% 29.95 in 10.0 mi Calm Calm - N/A   Clear
10:55 PM 39.0 °F 31.8 °F 75% 29.95 in 10.0 mi Calm Calm - N/A   Clear
11:15 PM 37.8 °F 32.0 °F 80% 29.94 in 10.0 mi Calm Calm - N/A   Clear
11:35 PM 37.6 °F 31.8 °F 80% 29.94 in 10.0 mi Calm Calm - N/A   Clear
11:55 PM 37.0 °F 31.8 °F 81% 29.94 in 10.0 mi Calm Calm - N/A   Scattered Clouds